Weather History for Columbia, MO

Change the Weather History Date:

Monday, May 6, 2013

  Actual Average Record
Temperature  
Mean Temperature 64 °F 61 °F  
Max Temperature 74 °F 72 °F 90 °F (1896)
Min Temperature 54 °F 51 °F 32 °F (1891)
Degree Days  
Heating Degree Days 1 5  
Month to date heating degree days 76 33  
Since 1 July heating degree days 4837 4936  
Cooling Degree Days 0 1  
Month to date cooling degree days 6 6  
Year to date cooling degree days 28 31  
Growing Degree Days 14 (Base 50)    
Moisture  
Dew Point 53 °F    
Average Humidity 75    
Maximum Humidity 100    
Minimum Humidity 49    
Precipitation  
Precipitation 0.00 in 0.17 in 2.09 in (1910)
Month to date precipitation 1.19 1.02  
Year to date precipitation 18.11 12.59  
Snow  
Snow 0.00 in 0.00 in T in (1944)
Month to date snowfall T 0.0  
Since 1 July snowfall 35.0 18.0  
Snow Depth 0.00 in    
Sea Level Pressure  
Sea Level Pressure 30.00 in    
Wind  
Wind Speed 9 mph (NNW)    
Max Wind Speed 18 mph    
Max Gust Speed 23 mph    
Visibility 8 miles    
Events      
T = Trace of Precipitation, MM = Missing Value Source: NWS Daily Summary

Daily Weather History Graph

Daily Weather History Graph

Search for Another Location

Airport:

Trip Planner

Search our weather history database for the weather conditions in past years. The results will help you decide how hot, cold, wet, or windy it might be!

Date:

Astronomy

May. 06, 2013 Rise Set
Actual Time 6:05 AM CDT 8:06 PM CDT
Civil Twilight 5:36 AM CDT 8:35 PM CDT
Nautical Twilight 5:00 AM CDT 9:11 PM CDT
Astronomical Twilight 4:22 AM CDT 9:49 PM CDT
Moon 4:05 AM CDT (5/6) 5:08 PM CDT (5/6)
Length of Visible Light 14h 59m
Length of Day
14h 01m
Waning Crescent, 11% of the Moon is Illuminated
May 6
Waning Crescent
May 9
New
May 17
First Quarter
May 24
Full
May 31
Last Quarter

Hourly Weather History & Observations

Time (CDT) Temp. Dew Point Humidity Pressure Visibility Wind Dir Wind Speed Gust Speed Precip Events Conditions
12:54 AM 55.0 °F 53.1 °F 93% 29.98 in 10.0 mi WNW 10.4 mph - 0.00 in   Overcast
1:39 AM 54.0 °F 52.0 °F 93% 29.98 in 7.0 mi WNW 10.4 mph - N/A   Mostly Cloudy
1:51 AM 53.6 °F 53.6 °F 100% 29.98 in 6.0 mi NW 9.2 mph - N/A   Mostly Cloudy
1:54 AM 54.0 °F 53.1 °F 97% 29.97 in 6.0 mi NW 11.5 mph - N/A   Mostly Cloudy
2:54 AM 55.0 °F 53.1 °F 93% 29.96 in 5.0 mi NW 11.5 mph - N/A   Overcast
3:54 AM 55.0 °F 54.0 °F 96% 29.96 in 3.0 mi NW 12.7 mph - N/A   Overcast
4:54 AM 55.0 °F 54.0 °F 96% 29.97 in 4.0 mi NNW 9.2 mph - N/A   Overcast
5:54 AM 55.0 °F 53.1 °F 93% 29.99 in 4.0 mi North 8.1 mph - N/A   Overcast
6:54 AM 55.0 °F 53.1 °F 93% 30.01 in 3.0 mi North 10.4 mph - N/A   Overcast
7:54 AM 55.9 °F 53.1 °F 90% 30.03 in 5.0 mi North 11.5 mph - N/A   Overcast
8:54 AM 57.9 °F 54.0 °F 87% 30.04 in 7.0 mi North 8.1 mph - N/A   Mostly Cloudy
9:54 AM 61.0 °F 54.0 °F 78% 30.04 in 10.0 mi North 9.2 mph - N/A   Clear
10:54 AM 64.0 °F 55.0 °F 73% 30.04 in 10.0 mi NW 9.2 mph - N/A   Scattered Clouds
11:54 AM 66.9 °F 55.0 °F 66% 30.03 in 10.0 mi NNW 8.1 mph - N/A   Partly Cloudy
12:54 PM 70.0 °F 52.0 °F 53% 30.01 in 10.0 mi North 12.7 mph - N/A   Partly Cloudy
1:54 PM 71.1 °F 52.0 °F 51% 30.01 in 10.0 mi NNE 11.5 mph 20.7 mph N/A   Mostly Cloudy
2:54 PM 72.0 °F 52.0 °F 49% 29.99 in 10.0 mi North 13.8 mph - N/A   Scattered Clouds
3:54 PM 71.1 °F 52.0 °F 51% 29.98 in 10.0 mi North 9.2 mph - N/A   Mostly Cloudy
4:54 PM 70.0 °F 52.0 °F 53% 29.97 in 10.0 mi NNE 8.1 mph - N/A   Overcast
5:54 PM 68.0 °F 53.1 °F 59% 29.98 in 10.0 mi North 6.9 mph - N/A   Overcast
6:54 PM 66.9 °F 52.0 °F 59% 29.98 in 10.0 mi NNW 9.2 mph - N/A   Overcast
7:54 PM 64.4 °F 53.6 °F 68% 29.99 in 10.0 mi NNW 6.9 mph - N/A   Overcast
8:54 PM 64.0 °F 55.0 °F 73% 29.99 in 10.0 mi NW 5.8 mph - N/A   Overcast
9:54 PM 62.1 °F 54.0 °F 75% 30.01 in 10.0 mi NNW 5.8 mph - N/A   Overcast
10:54 PM 61.0 °F 53.1 °F 75% 30.01 in 10.0 mi WNW 5.8 mph - N/A   Overcast
11:54 PM 60.1 °F 54.0 °F 80% 30.02 in 10.0 mi WNW 8.1 mph - N/A   Mostly Cloudy